| time (UTC) | temp F | wind direction | speed MPH | gust MPH | rain 1hr in | rain 24hr in | rain mn in | humidity % | barometer mb |
| 20260505055752 | 85 | 13 | 1.0 | 6.0 | 0.00 | 0.00 | 0.00 | 38 | 1016.1 |
| 20260505055527 | 85 | 316 | 2.0 | 5.0 | 0.00 | 0.00 | 0.00 | 39 | 1016.0 |
| 20260505054752 | 84 | 311 | 2.0 | 5.0 | 0.00 | 0.00 | 0.00 | 39 | 1016.1 |
| 20260505054254 | 84 | 14 | 2.0 | 5.0 | 0.00 | 0.00 | 0.00 | 40 | 1016.1 |
| 20260505053752 | 83 | 25 | 2.0 | 5.0 | 0.00 | 0.00 | 0.00 | 39 | 1016.1 |
| 20260505053252 | 84 | 32 | 2.0 | 5.0 | 0.00 | 0.00 | 0.00 | 41 | 1016.2 |
| 20260505052753 | 83 | 50 | 2.0 | 6.0 | 0.00 | 0.00 | 0.00 | 43 | 1016.2 |
| 20260505052250 | 83 | 327 | 2.0 | 7.0 | 0.00 | 0.00 | 0.00 | 43 | 1016.2 |
| 20260505052015 | 82 | 35 | 2.0 | 7.0 | 0.00 | 0.00 | 0.00 | 44 | 1016.2 |
| 20260505051248 | 82 | 34 | 3.0 | 6.0 | 0.00 | 0.00 | 0.00 | 44 | 1016.3 |
| 20260505050748 | 82 | 36 | 3.0 | 8.0 | 0.00 | 0.00 | 0.00 | 44 | 1016.2 |
| 20260505050248 | 82 | 34 | 2.0 | 8.0 | 0.00 | 0.00 | 0.00 | 44 | 1016.2 |
| 20260505041736 | 80 | 20 | 2.0 | 4.0 | 0.00 | 0.00 | 0.00 | 46 | 1016.2 |
| 20260505041233 | 79 | 334 | 2.0 | 4.0 | 0.00 | 0.00 | 0.00 | 48 | 1016.2 |
| 20260505040737 | 79 | 43 | 2.0 | 6.0 | 0.00 | 0.00 | 0.00 | 48 | 1016.2 |
| 20260505040231 | 79 | 40 | 2.0 | 6.0 | 0.00 | 0.00 | 0.00 | 47 | 1016.1 |
| 20260505035726 | 78 | 94 | 2.0 | 6.0 | 0.00 | 0.00 | 0.00 | 49 | 1016.0 |
| 20260505035228 | 78 | 48 | 2.0 | 6.0 | 0.00 | 0.00 | 0.00 | 48 | 1016.0 |
| 20260505034724 | 78 | 94 | 2.0 | 6.0 | 0.00 | 0.00 | 0.00 | 51 | 1016.0 |
| 20260505034228 | 77 | 130 | 1.0 | 4.0 | 0.00 | 0.00 | 0.00 | 49 | 1016.0 |
| 20260505033724 | 77 | 46 | 1.0 | 4.0 | 0.00 | 0.00 | 0.00 | 51 | 1016.0 |
| 20260505033224 | 77 | 88 | 1.0 | 3.0 | 0.00 | 0.00 | 0.00 | 51 | 1016.0 |
| 20260505032723 | 76 | 88 | 1.0 | 3.0 | 0.00 | 0.00 | 0.00 | 52 | 1016.0 |
| 20260505032224 | 76 | 88 | 2.0 | 4.0 | 0.00 | 0.00 | 0.00 | 52 | 1016.0 |
| 20260505031724 | 76 | 90 | 2.0 | 4.0 | 0.00 | 0.00 | 0.00 | 52 | 1016.0 |
| 20260505031228 | 76 | 92 | 2.0 | 4.0 | 0.00 | 0.00 | 0.00 | 53 | 1016.0 |
| 20260505030722 | 75 | 91 | 2.0 | 4.0 | 0.00 | 0.00 | 0.00 | 54 | 1015.9 |
| 20260505030224 | 75 | 92 | 2.0 | 6.0 | 0.00 | 0.00 | 0.00 | 55 | 1016.0 |
| 20260505025223 | 74 | 88 | 2.0 | 6.0 | 0.00 | 0.00 | 0.00 | 56 | 1015.8 |
| 20260505024219 | 73 | 90 | 2.0 | 6.0 | 0.00 | 0.00 | 0.00 | 56 | 1015.8 |
| 20260505023719 | 72 | 86 | 2.0 | 6.0 | 0.00 | 0.00 | 0.00 | 59 | 1015.8 |
| 20260505023440 | 71 | 85 | 1.0 | 4.0 | 0.00 | 0.00 | 0.00 | 60 | 1015.7 |
| 20260505022707 | 70 | 79 | 1.0 | 4.0 | 0.00 | 0.00 | 0.00 | 62 | 1015.7 |
| 20260505022200 | 69 | 78 | 0.0 | 4.0 | 0.00 | 0.00 | 0.00 | 66 | 1015.7 |
| 20260505021655 | 69 | 36 | 1.0 | 4.0 | 0.00 | 0.00 | 0.00 | 67 | 1015.6 |
| 20260505021149 | 68 | 36 | 2.0 | 4.0 | 0.00 | 0.00 | 0.00 | 68 | 1015.4 |
| 20260505020908 | 68 | 35 | 1.0 | 3.0 | 0.00 | 0.00 | 0.00 | 69 | 1015.4 |
| 20260505020409 | 67 | 34 | 1.0 | 4.0 | 0.00 | 0.00 | 0.00 | 70 | 1015.2 |
| 20260505015631 | 67 | 32 | 1.0 | 4.0 | 0.00 | 0.00 | 0.00 | 71 | 1015.1 |
| 20260505015125 | 67 | 23 | 0.0 | 0.0 | 0.00 | 0.00 | 0.00 | 73 | 1015.1 |
| 20260505014619 | 67 | 342 | 0.0 | 0.0 | 0.00 | 0.00 | 0.00 | 73 | 1015.0 |
| 20260505014113 | 67 | 339 | 0.0 | 0.0 | 0.00 | 0.00 | 0.00 | 73 | 1014.9 |
| 20260505013606 | 67 | 339 | 0.0 | 0.0 | 0.00 | 0.00 | 0.00 | 73 | 1014.9 |
| 20260505013102 | 66 | 339 | 0.0 | 0.0 | 0.00 | 0.00 | 0.00 | 73 | 1014.8 |
| 20260505012826 | 66 | 339 | 0.0 | 0.0 | 0.00 | 0.00 | 0.00 | 74 | 1014.7 |
| 20260505012049 | 66 | 340 | 0.0 | 0.0 | 0.00 | 0.00 | 0.00 | 74 | 1014.7 |
| 20260505011543 | 66 | 345 | 0.0 | 0.0 | 0.00 | 0.00 | 0.00 | 74 | 1014.6 |
| 20260505011037 | 66 | 344 | 0.0 | 0.0 | 0.00 | 0.00 | 0.00 | 74 | 1014.6 |
| 20260505010531 | 66 | 344 | 0.0 | 0.0 | 0.00 | 0.00 | 0.00 | 74 | 1014.5 |
| 20260505010025 | 66 | 344 | 0.0 | 0.0 | 0.00 | 0.00 | 0.00 | 74 | 1014.5 |
| 20260505005519 | 66 | 344 | 0.0 | 0.0 | 0.00 | 0.00 | 0.00 | 74 | 1014.4 |
| 20260505005014 | 66 | 344 | 0.0 | 0.0 | 0.00 | 0.00 | 0.00 | 74 | 1014.4 |
| 20260505004508 | 66 | 344 | 0.0 | 0.0 | 0.00 | 0.00 | 0.00 | 74 | 1014.1 |
| 20260505004001 | 66 | 344 | 0.0 | 0.0 | 0.00 | 0.00 | 0.00 | 73 | 1014.1 |
| 20260505003455 | 66 | 344 | 0.0 | 0.0 | 0.00 | 0.00 | 0.00 | 73 | 1014.0 |
| 20260505002949 | 66 | 343 | 0.0 | 0.0 | 0.00 | 0.00 | 0.00 | 72 | 1013.9 |
| 20260505002443 | 66 | 341 | 0.0 | 0.0 | 0.00 | 0.00 | 0.00 | 72 | 1014.0 |
| 20260505001938 | 66 | 341 | 0.0 | 0.0 | 0.00 | 0.00 | 0.00 | 72 | 1013.9 |
| 20260505001431 | 66 | 341 | 0.0 | 0.0 | 0.00 | 0.00 | 0.00 | 72 | 1013.8 |
| 20260505000925 | 66 | 341 | 0.0 | 0.0 | 0.00 | 0.00 | 0.00 | 72 | 1013.9 |
| 20260505000420 | 66 | 341 | 0.0 | 0.0 | 0.00 | 0.00 | 0.00 | 71 | 1013.8 |
| 20260504235913 | 66 | 341 | 0.0 | 0.0 | 0.00 | 0.00 | 0.00 | 71 | 1013.8 |
| 20260504235407 | 66 | 341 | 0.0 | 0.0 | 0.00 | 0.00 | 0.00 | 71 | 1013.7 |
| 20260504234901 | 66 | 341 | 0.0 | 0.0 | 0.00 | 0.00 | 0.00 | 72 | 1013.7 |
| 20260504234619 | 66 | 341 | 0.0 | 0.0 | 0.00 | 0.00 | 0.00 | 71 | 1013.6 |
| 20260504233849 | 66 | 341 | 0.0 | 0.0 | 0.00 | 0.00 | 0.00 | 71 | 1013.5 |
| 20260504233343 | 66 | 341 | 0.0 | 0.0 | 0.00 | 0.00 | 0.00 | 71 | 1013.3 |
| 20260504232837 | 66 | 341 | 0.0 | 0.0 | 0.00 | 0.00 | 0.00 | 71 | 1013.3 |
| 20260504232331 | 66 | 341 | 0.0 | 0.0 | 0.00 | 0.00 | 0.00 | 72 | 1013.2 |
| 20260504231825 | 66 | 341 | 0.0 | 0.0 | 0.00 | 0.00 | 0.00 | 72 | 1013.1 |
| 20260504231319 | 66 | 329 | 0.0 | 0.0 | 0.00 | 0.00 | 0.00 | 73 | 1013.0 |
| 20260504230813 | 66 | 329 | 0.0 | 0.0 | 0.00 | 0.00 | 0.00 | 73 | 1013.0 |
| 20260504230308 | 66 | 329 | 0.0 | 0.0 | 0.00 | 0.00 | 0.00 | 73 | 1012.9 |
| 20260504225801 | 66 | 330 | 0.0 | 0.0 | 0.00 | 0.00 | 0.00 | 73 | 1012.8 |
| 20260504225255 | 66 | 330 | 0.0 | 0.0 | 0.00 | 0.00 | 0.00 | 73 | 1012.8 |
| 20260504224749 | 67 | 330 | 0.0 | 0.0 | 0.00 | 0.00 | 0.00 | 73 | 1012.8 |
| 20260504224243 | 67 | 330 | 0.0 | 0.0 | 0.00 | 0.00 | 0.00 | 73 | 1012.8 |
| 20260504223742 | 67 | 330 | 0.0 | 0.0 | 0.00 | 0.00 | 0.00 | 73 | 1012.7 |
| 20260504223239 | 67 | 330 | 0.0 | 0.0 | 0.00 | 0.00 | 0.00 | 72 | 1012.7 |
| 20260504222739 | 67 | 329 | 0.0 | 0.0 | 0.00 | 0.00 | 0.00 | 72 | 1012.5 |
| 20260504222235 | 67 | 327 | 1.0 | 3.0 | 0.00 | 0.00 | 0.00 | 71 | 1012.5 |
| 20260504221738 | 67 | 325 | 2.0 | 4.0 | 0.00 | 0.00 | 0.00 | 71 | 1012.2 |
| 20260504221236 | 67 | 325 | 1.0 | 4.0 | 0.00 | 0.00 | 0.00 | 70 | 1012.2 |
| 20260504220731 | 67 | 23 | 0.0 | 3.0 | 0.00 | 0.00 | 0.00 | 70 | 1012.4 |
| 20260504220231 | 68 | 72 | 0.0 | 0.0 | 0.00 | 0.00 | 0.00 | 69 | 1012.2 |
| 20260504215729 | 68 | 72 | 0.0 | 2.0 | 0.00 | 0.00 | 0.00 | 69 | 1012.2 |
| 20260504215457 | 68 | 72 | 1.0 | 2.0 | 0.00 | 0.00 | 0.00 | 68 | 1012.2 |
| 20260504214729 | 68 | 72 | 0.0 | 2.0 | 0.00 | 0.00 | 0.00 | 69 | 1012.2 |
| 20260504214228 | 68 | 72 | 0.0 | 0.0 | 0.00 | 0.00 | 0.00 | 69 | 1012.2 |
| 20260504213729 | 68 | 72 | 0.0 | 0.0 | 0.00 | 0.00 | 0.00 | 68 | 1012.2 |
| 20260504213225 | 68 | 72 | 0.0 | 0.0 | 0.00 | 0.00 | 0.00 | 68 | 1012.2 |
| 20260504212725 | 68 | 72 | 0.0 | 0.0 | 0.00 | 0.00 | 0.00 | 66 | 1012.1 |
| 20260504212227 | 68 | 72 | 0.0 | 0.0 | 0.00 | 0.00 | 0.00 | 66 | 1012.1 |
| 20260504211726 | 68 | 72 | 0.0 | 0.0 | 0.00 | 0.00 | 0.00 | 66 | 1012.1 |
| 20260504211225 | 69 | 72 | 0.0 | 0.0 | 0.00 | 0.00 | 0.00 | 66 | 1012.1 |
| 20260504210723 | 69 | 72 | 0.0 | 0.0 | 0.00 | 0.00 | 0.00 | 65 | 1012.1 |
| 20260504210221 | 69 | 72 | 0.0 | 0.0 | 0.00 | 0.00 | 0.00 | 65 | 1012.1 |
| 20260504205721 | 69 | 72 | 0.0 | 0.0 | 0.00 | 0.00 | 0.00 | 65 | 1012.1 |
| 20260504205219 | 69 | 72 | 0.0 | 0.0 | 0.00 | 0.00 | 0.00 | 65 | 1012.1 |
| 20260504204717 | 69 | 72 | 0.0 | 0.0 | 0.00 | 0.00 | 0.00 | 65 | 1012.1 |
| 20260504204450 | 69 | 72 | 0.0 | 0.0 | 0.00 | 0.00 | 0.00 | 64 | 1012.0 |
| 20260504203443 | 69 | 72 | 0.0 | 0.0 | 0.00 | 0.00 | 0.00 | 63 | 1012.0 |
| 20260504202723 | 70 | 72 | 0.0 | 0.0 | 0.00 | 0.00 | 0.00 | 62 | 1011.9 |
| 20260504202218 | 70 | 72 | 0.0 | 0.0 | 0.00 | 0.00 | 0.00 | 61 | 1012.0 |
| 20260504201719 | 70 | 72 | 1.0 | 3.0 | 0.00 | 0.00 | 0.00 | 60 | 1011.9 |
| 20260504201217 | 70 | 72 | 1.0 | 5.0 | 0.00 | 0.00 | 0.00 | 60 | 1011.9 |
| 20260504200715 | 70 | 71 | 1.0 | 5.0 | 0.00 | 0.00 | 0.00 | 59 | 1011.9 |
| 20260504200215 | 70 | 73 | 0.0 | 3.0 | 0.00 | 0.00 | 0.00 | 59 | 1011.9 |
| 20260504195715 | 69 | 73 | 1.0 | 4.0 | 0.00 | 0.00 | 0.00 | 59 | 1012.0 |
| 20260504195215 | 69 | 73 | 1.0 | 4.0 | 0.00 | 0.00 | 0.00 | 60 | 1011.9 |
| 20260504194714 | 69 | 56 | 1.0 | 4.0 | 0.00 | 0.00 | 0.00 | 62 | 1011.9 |
| 20260504194215 | 69 | 36 | 0.0 | 0.0 | 0.00 | 0.00 | 0.00 | 64 | 1011.8 |
| 20260504193714 | 70 | 35 | 0.0 | 0.0 | 0.00 | 0.00 | 0.00 | 65 | 1011.8 |
| 20260504193213 | 70 | 35 | 0.0 | 0.0 | 0.00 | 0.00 | 0.00 | 65 | 1011.7 |
| 20260504192713 | 70 | 35 | 0.0 | 0.0 | 0.00 | 0.00 | 0.00 | 65 | 1011.7 |
| 20260504192216 | 70 | 35 | 0.0 | 0.0 | 0.00 | 0.00 | 0.00 | 65 | 1011.7 |
| 20260504191713 | 70 | 35 | 0.0 | 0.0 | 0.00 | 0.00 | 0.00 | 65 | 1011.7 |
| 20260504191214 | 70 | 35 | 0.0 | 0.0 | 0.00 | 0.00 | 0.00 | 66 | 1011.6 |
| 20260504190715 | 70 | 35 | 0.0 | 0.0 | 0.00 | 0.00 | 0.00 | 65 | 1011.6 |
| 20260504190212 | 70 | 35 | 0.0 | 0.0 | 0.00 | 0.00 | 0.00 | 65 | 1011.5 |
| 20260504185715 | 70 | 35 | 0.0 | 0.0 | 0.00 | 0.00 | 0.00 | 65 | 1011.4 |
| 20260504185209 | 70 | 35 | 0.0 | 0.0 | 0.00 | 0.00 | 0.00 | 65 | 1011.3 |
| 20260504184704 | 70 | 30 | 0.0 | 0.0 | 0.00 | 0.00 | 0.00 | 65 | 1011.3 |
| 20260504184159 | 70 | 30 | 0.0 | 0.0 | 0.00 | 0.00 | 0.00 | 65 | 1011.1 |
| 20260504183652 | 70 | 30 | 0.0 | 0.0 | 0.00 | 0.00 | 0.00 | 64 | 1011.1 |
| 20260504183145 | 71 | 30 | 0.0 | 0.0 | 0.00 | 0.00 | 0.00 | 64 | 1011.1 |
| 20260504182639 | 71 | 30 | 1.0 | 3.0 | 0.00 | 0.00 | 0.00 | 64 | 1011.0 |
| 20260504182133 | 71 | 23 | 2.0 | 4.0 | 0.00 | 0.00 | 0.00 | 64 | 1010.8 |
| 20260504181627 | 71 | 23 | 2.0 | 4.0 | 0.00 | 0.00 | 0.00 | 64 | 1010.6 |
| 20260504181127 | 71 | 333 | 1.0 | 4.0 | 0.00 | 0.00 | 0.00 | 63 | 1010.6 |
| 20260504180627 | 71 | 95 | 1.0 | 3.0 | 0.00 | 0.00 | 0.00 | 61 | 1010.6 |
| 20260504180123 | 71 | 101 | 1.0 | 3.0 | 0.00 | 0.00 | 0.00 | 60 | 1010.7 |
| 20260504175623 | 71 | 101 | 2.0 | 3.0 | 0.00 | 0.00 | 0.00 | 59 | 1010.6 |
| 20260504175125 | 71 | 101 | 1.0 | 3.0 | 0.00 | 0.00 | 0.00 | 59 | 1010.7 |
| 20260504174623 | 71 | 111 | 0.0 | 3.0 | 0.00 | 0.00 | 0.00 | 59 | 1010.9 |
| 20260504174353 | 71 | 155 | 0.0 | 2.0 | 0.00 | 0.00 | 0.00 | 60 | 1010.9 |
| 20260504173847 | 71 | 155 | 1.0 | 3.0 | 0.00 | 0.00 | 0.00 | 60 | 1010.9 |
| 20260504173125 | 71 | 155 | 1.0 | 3.0 | 0.00 | 0.00 | 0.00 | 60 | 1010.9 |
| 20260504172853 | 71 | 162 | 0.0 | 0.0 | 0.00 | 0.00 | 0.00 | 60 | 1010.9 |
| 20260504172123 | 71 | 163 | 0.0 | 0.0 | 0.00 | 0.00 | 0.00 | 59 | 1010.9 |
| 20260504171844 | 71 | 163 | 0.0 | 0.0 | 0.00 | 0.00 | 0.00 | 59 | 1010.9 |
| 20260504171121 | 71 | 163 | 0.0 | 0.0 | 0.00 | 0.00 | 0.00 | 59 | 1010.9 |
| 20260504170621 | 71 | 162 | 0.0 | 0.0 | 0.00 | 0.00 | 0.00 | 59 | 1011.0 |
| 20260504170117 | 71 | 163 | 0.0 | 0.0 | 0.00 | 0.00 | 0.00 | 60 | 1011.1 |
| 20260504160109 | 72 | 163 | 0.0 | 0.0 | 0.00 | 0.00 | 0.00 | 57 | 1011.0 |
| 20260504151103 | 73 | 181 | 5.0 | 9.0 | 0.00 | 0.00 | 0.00 | 56 | 1010.4 |
| 20260504150605 | 73 | 144 | 5.0 | 10.0 | 0.00 | 0.00 | 0.00 | 56 | 1010.5 |
| 20260504150105 | 73 | 196 | 5.0 | 10.0 | 0.00 | 0.00 | 0.00 | 56 | 1010.5 |
| 20260504141104 | 76 | 162 | 4.0 | 9.0 | 0.00 | 0.00 | 0.00 | 51 | 1009.4 |
| 20260504140602 | 76 | 157 | 5.0 | 12.0 | 0.00 | 0.00 | 0.00 | 51 | 1009.3 |
| 20260504130545 | 77 | 89 | 7.0 | 14.0 | 0.00 | 0.00 | 0.00 | 51 | 1009.5 |
| 20260504110444 | 81 | 92 | 6.0 | 13.0 | 0.00 | 0.00 | 0.00 | 47 | 1009.1 |
| 20260504100329 | 80 | 94 | 6.0 | 15.0 | 0.00 | 0.00 | 0.00 | 55 | 1010.0 |
| 20260504081622 | 83 | 58 | 2.0 | 6.0 | 0.00 | 0.00 | 0.00 | 52 | 1009.0 |
| 20260504081121 | 83 | 44 | 2.0 | 5.0 | 0.00 | 0.00 | 0.00 | 53 | 1009.1 |
| 20260504080611 | 82 | 45 | 3.0 | 8.0 | 0.00 | 0.00 | 0.00 | 54 | 1009.3 |
| 20260504080350 | 82 | 333 | 3.0 | 8.0 | 0.00 | 0.00 | 0.00 | 54 | 1009.5 |
| 20260504060249 | 81 | 30 | 3.0 | 7.0 | 0.00 | 0.00 | 0.00 | 48 | 1010.7 |